Зарегистрируйтесь или войдите для получения больших возможностей на сайте. Это не займет много времени. Спасибо.

bk_icerock

* ( Xtreme-jumps) 19.11.2006

Блоки: highjump - 224

Элементы: climbhj

Мировой рекордШвеция LEWLY - 02:00.99

Рекорд KZ-Rush Россия Creep - 02:17.31

Маппер Болгария BalkY

Pro-рекорд Россия Toffifee - 02:11.46

Nub-рекорд Россия RoN` - 02:26.272 (46 cp / 1 gc)

Сложность Легкая-Средняя

Длина Средняя

Скачать карту bk_icerock (750,69 KB)
Инструкция по установке

Инструкция по установке карты

  1. Скачайте ахрив с картой bk_icerock.zip
  2. Разархивируйте архив в любую удобную для Вас папку.
  3. Зайдите в папку cstrike, которая находится там, где у вас установлен Counter-Strike. Для Steam-версии эта папка находится в директоии Steam\steamapps\common\Half-Life
  4. Скопируйте все файлы из папки, куда вы распаковали архив, в папку cstrike согласно следующей таблице (если система спросит подтверждение на замену файла, нажмите Копировать с заменой)
maps/bk_icerock.bsp>>maps/bk_icerock.bsp
models/bk/hessi_gras01.mdl>>models/bk/hessi_gras01.mdl
models/bk/snow_tree.mdl>>models/bk/snow_tree.mdl

Рекорды сообщества

# Игрок Время Разница Дата  
1 Россия Creep 02:17.31   03.05.17 Смотреть видео
2 Россия MEfro 02:18.16 -00:00.85 18.02.17 Смотреть видео
3 Россия erdik 02:19.30 -00:01.99 18.02.17 Смотреть видео
4 Россия RoN` 02:22.28 -00:04.97 04.02.17 Смотреть видео
5 Украина korban 02:24.24 -00:06.93 15.05.16 Смотреть видео
6 Россия WhereIsMyPanda 02:25.03 -00:07.72 15.05.16 Смотреть видео
7 Казахстан WERANCE 02:32.99 -00:15.68 13.06.17 Смотреть видео
8 Россия lxr 02:43.95 -00:26.64 01.05.16 Смотреть видео
9 Россия Igor_S. 02:45.04 -00:27.73 22.07.16 Смотреть видео
10 Россия Alliance 03:23.09 -01:05.78 18.03.17 Смотреть видео
# Игрок Время Дата Оружие
1 Россия Toffifee 02:11.46 28.06.17 usp
2 Россия Creep 02:18.87 27.04.17 knife
3 Эстония AvasT 02:22.45 25.01.17 usp
4 Россия erdik 02:23.65 24.05.16 usp
5 Россия MEfro 02:23.85 14.02.17 usp
6 Россия Mr.Bean 02:27.89 13.04.16 usp
7 Россия mujik 02:29.81 28.04.16 usp
8 Россия intrider 02:30.03 27.06.16 knife
9 Россия sunman 02:33.67 13.10.16 usp
10 Россия Dmitrich! 02:35.41 07.03.17 usp
11 Россия fucktehworld 02:40.00 20.12.16 usp
12 Россия merc 02:41.24 22.04.16 usp
13 Россия Ripalex 02:41.91 24.04.16 usp
14 Россия sook 02:42.14 20.12.16 knife
15 Украина korban 02:44.15 28.02.16 usp
16 Россия Tihonya 02:49.11 11.04.17 usp
17 Россия lxr 02:50.68 02.04.16 usp
18 Россия dislike 02:50.74 31.05.17 usp
19 Россия ~Ow| BJJ 02:50.84 13.10.16 usp
20 Россия weakhopper 02:51.08 01.06.16 usp
21 Швейцария round 02:54.45 29.06.16 usp
22 Россия Kpoluk 02:54.63 18.03.16 usp
23 Финляндия aBide 02:59.62 11.04.16 usp
24 Белоруссия zepp_ 02:59.67 11.04.17 usp
25 Россия benga 03:12.21 13.05.16 knife
26 Россия L1bra 03:13.22 06.03.16 usp
27 Россия Crosshair_h 03:15.29 18.07.16 knife
28 Грузия PoOo 03:19.76 13.05.16 usp
29 Россия Sladkiy_Moy_idi_suda_ko_mne 03:19.78 11.08.16 usp
30 Россия nema povlacenja 03:23.80 01.02.17 knife
31 Россия asd 03:25.35 25.05.16 usp
32 Россия Xednay 03:27.14 28.04.16 usp
33 Россия tolyatti 03:27.76 27.06.16 usp
34 Россия cyxue_nonku^huggies 03:35.17 18.07.16 usp
35 Россия < blank > 03:43.85 10.03.16 usp
36 Россия afterlife 03:45.30 13.10.16 usp
37 Украина facecontroll 03:54.65 03.01.17 knife
38 Белоруссия KABINA 03:58.80 18.10.16 usp
39 Россия Igor_S. 04:03.76 07.06.16 knife
40 Россия Bring_It* 04:04.66 22.10.16 knife
41 Россия acoustic 04:05.33 04.04.16 usp
42 Россия LucifeRrrr 04:24.02 31.08.16 usp
43 Казахстан Dinis_A. 04:53.52 13.04.16 usp
44 Россия JahIthBer 06:32.36 12.07.16 usp
# Игрок Время Дата Оружиеcpgc
1 Россия RoN` 02:26.27 25.01.17 knife461
2 Россия GoDfreee 02:26.27 25.01.17 usp502
3 Россия sunman 02:30.65 01.11.16 usp554
4 Россия xenge 02:34.59 25.04.16 usp513
5 Россия Mr.Bean 02:35.06 13.04.16 usp614
6 Россия Scrawler 02:36.21 28.06.17 knife452
7 Россия Creep 02:42.49 25.04.16 usp11
8 Россия sook 02:42.55 27.04.17 usp458
9 Россия Dmitrich! 02:48.27 07.03.17 usp558
10 Россия noclipz 02:57.60 10.11.16 usp647
11 Россия merc 02:59.61 22.04.16 usp307
12 Россия Ficazint] 03:00.49 28.06.17 usp9110
13 Россия benga 03:02.08 13.05.16 usp695
14 Россия fucktehworld 03:03.06 01.03.17 knife7511
15 Россия L_o_r_d_1_k 03:04.15 25.01.17 usp9214
16 Россия Xednay 03:06.76 18.07.16 usp7616
17 Россия spane` 03:06.90 01.03.17 usp675
18 Украина admiral_vape___kievskiy 03:11.38 27.04.17 usp723
19 Россия L1bra 03:13.79 10.04.16 usp6719
20 Россия PLAYER 03:17.36 10.01.17 usp848
21 Киргизия KoRee 03:18.67 13.10.16 knife1095
22 Россия Imbik 03:19.07 01.03.17 usp7513
23 Россия Cold 03:19.15 18.07.16 knife707
24 Россия < blank > 03:19.51 24.02.16 usp987
25 Россия KRL 03:19.63 14.02.17 usp7512
26 Финляндия aBide 03:22.76 10.04.16 usp709
27 Россия Brian 03:25.60 04.12.16 usp8213
28 Россия 6oroda_u_BaTa 03:26.00 11.05.16 knife9213
29 Россия cyxue_nonku^huggies 03:29.97 18.07.16 knife8210
30 Украина Jmuriq 03:31.76 28.04.16 usp9020
31 Россия Tempered 03:32.74 13.04.16 knife1108
32 Россия gal9 03:33.37 02.04.16 usp8812
33 Россия <_blank_> 03:33.76 27.04.16 usp6712
34 Россия onset` 03:34.37 13.10.16 usp7713
35 Украина facecontroll 03:41.98 12.09.16 usp9512
36 Россия KOT3 03:44.50 13.05.16 usp9719
37 Белоруссия Pornstyle 03:46.33 27.04.17 usp8913
38 Россия Chain 03:46.95 10.01.17 usp5316
39 Россия Frutty 03:49.29 01.03.17 knife7222
40 Латвия m 03:49.48 30.05.17 usp5820
41 Алжир inj3ct0r. 03:50.54 28.06.17 usp8029
42 Украина Hikliv 03:54.75 15.03.17 usp539
43 Россия sdgdsg(вован) 03:54.82 19.04.16 knife7013
44 Россия vaflya 03:55.36 24.01.17 usp7625
45 Россия azaza1337 03:56.67 25.08.16 usp9626
46 Россия Crosshair_h 04:06.60 13.10.16 usp6831
47 Россия Isildur1 04:09.50 28.02.16 usp5524
48 Россия dimaRIC 04:10.04 08.01.17 usp7224
49 Нидерланды jar 04:12.08 25.04.16 usp6529
50 Россия Agressiv 04:12.33 28.06.17 knife6933
51 Украина ninja 04:17.95 13.04.16 usp7224
52 Египет cenzura 04:19.44 18.08.16 usp5816
53 Россия Hop 04:21.16 13.10.16 usp6228
54 КНР WWW.xinjiang.com 04:33.25 12.05.16 usp2117
55 Грузия PoOo 04:38.01 08.05.16 usp9233
56 Киргизия nerozqx 04:39.66 01.12.16 usp6237
57 Казахстан Cash 04:46.75 26.08.16 usp2829
58 Россия 4eJIoBek_KOKOC 04:49.76 04.10.16 knife7332
59 Россия akBaMyx 04:52.04 22.09.16 usp9640
60 Россия tolyatti 04:58.21 19.04.16 usp11428
61 Россия Skazy 05:00.83 04.04.16 usp3331
62 Россия yohohox 05:09.48 28.06.17 knife7858
63 Россия три_яйца 05:17.19 14.06.16 usp3330
64 КНР TTE方轻愁 05:19.93 28.06.17 usp7050
65 Украина Mikaela_Hyakuya 05:26.72 28.06.17 usp7769
66 Нидерланды LOVE_G 05:31.59 09.06.16 usp11661
67 Россия xapek bhop-0 05:40.73 01.04.16 usp9366
68 Россия Bring_It* 05:43.05 18.08.16 knife4426
69 Россия Inside_Beast< 05:47.18 13.04.16 knife11051
70 Украина OLLEVM 05:48.87 28.04.16 knife1936
71 Россия MEfro 05:49.25 14.02.17 usp3659
72 Россия Sayonara 06:03.21 22.04.16 knife3822
73 Россия minD 06:11.34 01.04.16 usp3948
74 Россия nm3^ 06:30.56 29.10.16 usp10466
75 Россия vika[NB] 06:31.17 24.04.16 usp7056
76 Россия Sex_Instructor 06:39.95 18.11.16 usp5944
77 Казахстан Level_Up>Чуваш¬ 06:40.25 01.11.16 usp4367
78 Россия DuMkA 06:56.94 18.07.16 usp9979
79 Россия IDs^^ 07:06.98 01.03.17 usp3729
80 Украина CT_KERICH 07:12.44 08.05.16 knife4346
81 Россия Rozovie_Trysiki 07:15.09 18.07.16 knife9047
82 Россия Freedomgaming 07:16.50 27.06.16 usp8181
83 Россия Ha koJleHu nepeg Hum 07:39.03 13.03.16 usp100108
84 Россия @@@@@@@@@@@@@@@@@@@@@@ 07:50.14 25.01.17 usp102126
85 Румыния Dikiu 08:26.76 30.04.16 usp5871
86 Украина 6370. 08:53.37 13.10.16 usp3182
87 Украина BoDiK_Новоросс 08:54.21 17.05.16 usp155149
88 Казахстан Dinis_A. 08:59.53 13.04.16 usp155141
89 Россия jumped 09:22.24 10.01.17 usp112129
90 Россия Кирилл(: 09:55.78 07.03.17 knife126148
91 Россия ss 12:10.71 13.10.16 knife51109
92 Россия Destiny*s_gift 12:46.17 26.11.16 usp4273
93 Неизвестная страна GUNPLAY 13:24.18 13.03.16 usp66203
94 Россия GolD___________________________ 14:38.92 13.10.16 knife5591

Другие карты похожей сложности

Другие карты Xtreme-jumps